Year,Month,Day,Hour,Minute,Value (Times are PST for temperature in C)
2016,06,05,00,00,18.20
2016,06,05,00,01,18.20
2016,06,05,00,02,18.20
2016,06,05,00,03,18.20
2016,06,05,00,04,18.20
2016,06,05,00,05,18.20
2016,06,05,00,06,18.20
2016,06,05,00,07,18.20
2016,06,05,00,08,18.20
2016,06,05,00,09,18.20
2016,06,05,00,10,18.10
2016,06,05,00,11,18.10
2016,06,05,00,12,18.10
2016,06,05,00,13,18.00
2016,06,05,00,14,18.00
2016,06,05,00,15,18.00
2016,06,05,00,16,17.90
2016,06,05,00,17,17.90
2016,06,05,00,18,17.90
2016,06,05,00,19,17.80
2016,06,05,00,20,17.80
2016,06,05,00,21,17.80
2016,06,05,00,22,17.70
2016,06,05,00,23,17.70
2016,06,05,00,24,17.60
2016,06,05,00,25,17.60
2016,06,05,00,26,17.50
2016,06,05,00,27,17.40
2016,06,05,00,28,17.40
2016,06,05,00,29,17.40
2016,06,05,00,30,17.40
2016,06,05,00,31,17.30
2016,06,05,00,32,17.30
2016,06,05,00,33,17.30
2016,06,05,00,34,17.20
2016,06,05,00,35,17.20
2016,06,05,00,36,17.20
2016,06,05,00,37,17.10
2016,06,05,00,38,17.10
2016,06,05,00,39,17.10
2016,06,05,00,40,17.10
2016,06,05,00,41,17.10
2016,06,05,00,42,17.10
2016,06,05,00,43,17.10
2016,06,05,00,44,17.10
2016,06,05,00,45,17.10
2016,06,05,00,46,17.10
2016,06,05,00,47,17.10
2016,06,05,00,48,17.10
2016,06,05,00,49,17.10
2016,06,05,00,50,17.00
2016,06,05,00,51,17.00
2016,06,05,00,52,17.00
2016,06,05,00,53,17.00
2016,06,05,00,54,16.90
2016,06,05,00,55,16.90
2016,06,05,00,56,16.90
2016,06,05,00,57,16.90
2016,06,05,00,58,16.80
2016,06,05,00,59,16.80
2016,06,05,01,00,16.80
2016,06,05,01,01,16.80
2016,06,05,01,02,16.80
2016,06,05,01,03,16.70
2016,06,05,01,04,16.70
2016,06,05,01,05,16.70
2016,06,05,01,06,16.60
2016,06,05,01,07,16.60
2016,06,05,01,08,16.60
2016,06,05,01,09,16.50
2016,06,05,01,10,16.50
2016,06,05,01,11,16.50
2016,06,05,01,12,16.40
2016,06,05,01,13,16.40
2016,06,05,01,14,16.40
2016,06,05,01,15,16.40
2016,06,05,01,16,16.40
2016,06,05,01,17,16.30
2016,06,05,01,18,16.30
2016,06,05,01,19,16.30
2016,06,05,01,20,16.30
2016,06,05,01,21,16.20
2016,06,05,01,22,16.20
2016,06,05,01,23,16.20
2016,06,05,01,24,16.20
2016,06,05,01,25,16.10
2016,06,05,01,26,16.10
2016,06,05,01,27,16.10
2016,06,05,01,28,16.10
2016,06,05,01,29,16.00
2016,06,05,01,30,16.00
2016,06,05,01,31,15.90
2016,06,05,01,32,15.90
2016,06,05,01,33,15.90
2016,06,05,01,34,15.90
2016,06,05,01,35,15.80
2016,06,05,01,36,15.80
2016,06,05,01,37,15.80
2016,06,05,01,38,15.70
2016,06,05,01,39,15.70
2016,06,05,01,40,15.70
2016,06,05,01,41,15.70
2016,06,05,01,42,15.70
2016,06,05,01,43,15.60
2016,06,05,01,44,15.60
2016,06,05,01,45,15.70
2016,06,05,01,46,15.70
2016,06,05,01,47,15.60
2016,06,05,01,48,15.60
2016,06,05,01,49,15.60
2016,06,05,01,50,15.60
2016,06,05,01,51,15.60
2016,06,05,01,52,15.60
2016,06,05,01,53,15.60
2016,06,05,01,54,15.50
2016,06,05,01,55,15.50
2016,06,05,01,56,15.50
2016,06,05,01,57,15.40
2016,06,05,01,58,15.40
2016,06,05,01,59,15.40
2016,06,05,02,00,15.40
2016,06,05,02,01,15.40
2016,06,05,02,02,15.40
2016,06,05,02,03,15.30
2016,06,05,02,04,15.30
2016,06,05,02,05,15.30
2016,06,05,02,06,15.30
2016,06,05,02,07,15.30
2016,06,05,02,08,15.20
2016,06,05,02,09,15.20
2016,06,05,02,10,15.20
2016,06,05,02,11,15.20
2016,06,05,02,12,15.20
2016,06,05,02,13,15.20
2016,06,05,02,14,15.20
2016,06,05,02,15,15.20
2016,06,05,02,16,15.20
2016,06,05,02,17,15.10
2016,06,05,02,18,15.10
2016,06,05,02,19,15.10
2016,06,05,02,20,15.10
2016,06,05,02,21,15.00
2016,06,05,02,22,15.00
2016,06,05,02,23,15.00
2016,06,05,02,24,15.00
2016,06,05,02,25,14.90
2016,06,05,02,26,14.90
2016,06,05,02,27,14.90
2016,06,05,02,28,14.80
2016,06,05,02,29,14.80
2016,06,05,02,30,14.80
2016,06,05,02,31,14.70
2016,06,05,02,32,14.70
2016,06,05,02,33,14.60
2016,06,05,02,34,14.60
2016,06,05,02,35,14.60
2016,06,05,02,36,14.50
2016,06,05,02,37,14.50
2016,06,05,02,38,14.40
2016,06,05,02,39,14.40
2016,06,05,02,40,14.40
2016,06,05,02,41,14.40
2016,06,05,02,42,14.40
2016,06,05,02,43,14.40
2016,06,05,02,44,14.40
2016,06,05,02,45,14.40
2016,06,05,02,46,14.40
2016,06,05,02,47,14.40
2016,06,05,02,48,14.40
2016,06,05,02,49,14.40
2016,06,05,02,50,14.40
2016,06,05,02,51,14.40
2016,06,05,02,52,14.50
2016,06,05,02,53,14.50
2016,06,05,02,54,14.50
2016,06,05,02,55,14.50
2016,06,05,02,56,14.40
2016,06,05,02,57,14.40
2016,06,05,02,58,14.40
2016,06,05,02,59,14.40
2016,06,05,03,00,14.40
2016,06,05,03,01,14.40
2016,06,05,03,02,14.30
2016,06,05,03,03,14.30
2016,06,05,03,04,14.30
2016,06,05,03,05,14.30
2016,06,05,03,06,14.30
2016,06,05,03,07,14.20
2016,06,05,03,08,14.20
2016,06,05,03,09,14.20
2016,06,05,03,10,14.20
2016,06,05,03,11,14.20
2016,06,05,03,12,14.20
2016,06,05,03,13,14.20
2016,06,05,03,14,14.20
2016,06,05,03,15,14.10
2016,06,05,03,16,14.10
2016,06,05,03,17,14.10
2016,06,05,03,18,14.10
2016,06,05,03,19,14.10
2016,06,05,03,20,14.00
2016,06,05,03,21,14.00
2016,06,05,03,22,14.00
2016,06,05,03,23,14.00
2016,06,05,03,24,13.90
2016,06,05,03,25,13.90
2016,06,05,03,26,13.90
2016,06,05,03,27,13.90
2016,06,05,03,28,13.90
2016,06,05,03,29,13.90
2016,06,05,03,30,13.90
2016,06,05,03,31,13.90
2016,06,05,03,32,13.90
2016,06,05,03,33,13.90
2016,06,05,03,34,13.90
2016,06,05,03,35,13.90
2016,06,05,03,36,13.90
2016,06,05,03,37,13.80
2016,06,05,03,38,13.80
2016,06,05,03,39,13.80
2016,06,05,03,40,13.80
2016,06,05,03,41,13.80
2016,06,05,03,42,13.80
2016,06,05,03,43,13.80
2016,06,05,03,44,13.80
2016,06,05,03,45,13.70
2016,06,05,03,46,13.70
2016,06,05,03,47,13.70
2016,06,05,03,48,13.70
2016,06,05,03,49,13.70
2016,06,05,03,50,13.70
2016,06,05,03,51,13.60
2016,06,05,03,52,13.60
2016,06,05,03,53,13.60
2016,06,05,03,54,13.50
2016,06,05,03,55,13.50
2016,06,05,03,56,13.50
2016,06,05,03,57,13.40
2016,06,05,03,58,13.40
2016,06,05,03,59,13.40
2016,06,05,04,00,13.40
2016,06,05,04,01,13.40
2016,06,05,04,02,13.40
2016,06,05,04,03,13.40
2016,06,05,04,04,13.40
2016,06,05,04,05,13.40
2016,06,05,04,06,13.40
2016,06,05,04,07,13.40
2016,06,05,04,08,13.40
2016,06,05,04,09,13.40
2016,06,05,04,10,13.40
2016,06,05,04,11,13.40
2016,06,05,04,12,13.40
2016,06,05,04,13,13.40
2016,06,05,04,14,13.40
2016,06,05,04,15,13.40
2016,06,05,04,16,13.40
2016,06,05,04,17,13.40
2016,06,05,04,18,13.40
2016,06,05,04,19,13.30
2016,06,05,04,20,13.30
2016,06,05,04,21,13.30
2016,06,05,04,22,13.30
2016,06,05,04,23,13.20
2016,06,05,04,24,13.20
2016,06,05,04,25,13.20
2016,06,05,04,26,13.20
2016,06,05,04,27,13.20
2016,06,05,04,28,13.10
2016,06,05,04,29,13.10
2016,06,05,04,30,13.10
2016,06,05,04,31,13.10
2016,06,05,04,32,13.00
2016,06,05,04,33,13.00
2016,06,05,04,34,13.00
2016,06,05,04,35,12.90
2016,06,05,04,36,12.90
2016,06,05,04,37,12.90
2016,06,05,04,38,12.90
2016,06,05,04,39,12.90
2016,06,05,04,40,12.90
2016,06,05,04,41,12.80
2016,06,05,04,42,12.80
2016,06,05,04,43,12.80
2016,06,05,04,44,12.80
2016,06,05,04,45,12.80
2016,06,05,04,46,12.80
2016,06,05,04,47,12.80
2016,06,05,04,48,12.80
2016,06,05,04,49,12.80
2016,06,05,04,50,12.80
2016,06,05,04,51,12.80
2016,06,05,04,52,12.80
2016,06,05,04,53,12.80
2016,06,05,04,54,12.80
2016,06,05,04,55,12.80
2016,06,05,04,56,12.80
2016,06,05,04,57,12.80
2016,06,05,04,58,12.80
2016,06,05,04,59,12.80
2016,06,05,05,00,12.80
2016,06,05,05,01,12.80
2016,06,05,05,02,12.80
2016,06,05,05,03,12.80
2016,06,05,05,04,12.70
2016,06,05,05,05,12.70
2016,06,05,05,06,12.70
2016,06,05,05,07,12.70
2016,06,05,05,08,12.70
2016,06,05,05,09,12.70
2016,06,05,05,10,12.70
2016,06,05,05,11,12.70
2016,06,05,05,12,12.70
2016,06,05,05,13,12.70
2016,06,05,05,14,12.70
2016,06,05,05,15,12.70
2016,06,05,05,16,12.70
2016,06,05,05,17,12.70
2016,06,05,05,18,12.70
2016,06,05,05,19,12.70
2016,06,05,05,20,12.70
2016,06,05,05,21,12.70
2016,06,05,05,22,12.70
2016,06,05,05,23,12.70
2016,06,05,05,24,12.70
2016,06,05,05,25,12.70
2016,06,05,05,26,12.70
2016,06,05,05,27,12.70
2016,06,05,05,28,12.70
2016,06,05,05,29,12.70
2016,06,05,05,30,12.70
2016,06,05,05,31,12.70
2016,06,05,05,32,12.70
2016,06,05,05,33,12.70
2016,06,05,05,34,12.70
2016,06,05,05,35,12.70
2016,06,05,05,36,12.70
2016,06,05,05,37,12.70
2016,06,05,05,38,12.70
2016,06,05,05,39,12.70
2016,06,05,05,40,12.70
2016,06,05,05,41,12.70
2016,06,05,05,42,12.70
2016,06,05,05,43,12.70
2016,06,05,05,44,12.70
2016,06,05,05,45,12.70
2016,06,05,05,46,12.70
2016,06,05,05,47,12.70
2016,06,05,05,48,12.70
2016,06,05,05,49,12.70
2016,06,05,05,50,12.70
2016,06,05,05,51,12.70
2016,06,05,05,52,12.70
2016,06,05,05,53,12.70
2016,06,05,05,54,12.70
2016,06,05,05,55,12.70
2016,06,05,05,56,12.70
2016,06,05,05,57,12.70
2016,06,05,05,58,12.70
2016,06,05,05,59,12.70
2016,06,05,06,00,12.70
2016,06,05,06,01,12.60
2016,06,05,06,02,12.60
2016,06,05,06,03,12.60
2016,06,05,06,04,12.60
2016,06,05,06,05,12.60
2016,06,05,06,06,12.60
2016,06,05,06,07,12.60
2016,06,05,06,08,12.60
2016,06,05,06,09,12.60
2016,06,05,06,10,12.60
2016,06,05,06,11,12.60
2016,06,05,06,12,12.60
2016,06,05,06,13,12.60
2016,06,05,06,14,12.60
2016,06,05,06,15,12.70
2016,06,05,06,16,12.70
2016,06,05,06,17,12.80
2016,06,05,06,18,12.80
2016,06,05,06,19,12.90
2016,06,05,06,20,12.90
2016,06,05,06,21,13.00
2016,06,05,06,22,13.00
2016,06,05,06,23,13.10
2016,06,05,06,24,13.10
2016,06,05,06,25,13.20
2016,06,05,06,26,13.30
2016,06,05,06,27,13.30
2016,06,05,06,28,13.40
2016,06,05,06,29,13.50
2016,06,05,06,30,13.50
2016,06,05,06,31,13.60
2016,06,05,06,32,13.70
2016,06,05,06,33,13.70
2016,06,05,06,34,13.80
2016,06,05,06,35,13.90
2016,06,05,06,36,13.90
2016,06,05,06,37,14.00
2016,06,05,06,38,14.10
2016,06,05,06,39,14.20
2016,06,05,06,40,14.20
2016,06,05,06,41,14.30
2016,06,05,06,42,14.40
2016,06,05,06,43,14.40
2016,06,05,06,44,14.50
2016,06,05,06,45,14.50
2016,06,05,06,46,14.60
2016,06,05,06,47,14.60
2016,06,05,06,48,14.70
2016,06,05,06,49,14.70
2016,06,05,06,50,14.80
2016,06,05,06,51,14.80
2016,06,05,06,52,14.90
2016,06,05,06,53,14.90
2016,06,05,06,54,14.90
2016,06,05,06,55,14.90
2016,06,05,06,56,14.90
2016,06,05,06,57,14.90
2016,06,05,06,58,14.90
2016,06,05,06,59,15.00
2016,06,05,07,00,15.00
2016,06,05,07,01,15.10
2016,06,05,07,02,15.10
2016,06,05,07,03,15.10
2016,06,05,07,04,15.10
2016,06,05,07,05,15.10
2016,06,05,07,06,15.10
2016,06,05,07,07,15.10
2016,06,05,07,08,15.10
2016,06,05,07,09,15.10
2016,06,05,07,10,15.10
2016,06,05,07,11,15.10
2016,06,05,07,12,15.10
2016,06,05,07,13,15.20
2016,06,05,07,14,15.20
2016,06,05,07,15,15.20
2016,06,05,07,16,15.20
2016,06,05,07,17,15.20
2016,06,05,07,18,15.20
2016,06,05,07,19,15.20
2016,06,05,07,20,15.30
2016,06,05,07,21,15.30
2016,06,05,07,22,15.30
2016,06,05,07,23,15.30
2016,06,05,07,24,15.40
2016,06,05,07,25,15.40
2016,06,05,07,26,15.50
2016,06,05,07,27,15.50
2016,06,05,07,28,15.60
2016,06,05,07,29,15.60
2016,06,05,07,30,15.70
2016,06,05,07,31,15.80
2016,06,05,07,32,15.80
2016,06,05,07,33,15.90
2016,06,05,07,34,16.00
2016,06,05,07,35,16.00
2016,06,05,07,36,16.10
2016,06,05,07,37,16.20
2016,06,05,07,38,16.20
2016,06,05,07,39,16.30
2016,06,05,07,40,16.30
2016,06,05,07,41,16.40
2016,06,05,07,42,16.50
2016,06,05,07,43,16.60
2016,06,05,07,44,16.60
2016,06,05,07,45,16.60
2016,06,05,07,46,16.70
2016,06,05,07,47,16.80
2016,06,05,07,48,16.80
2016,06,05,07,49,16.90
2016,06,05,07,50,16.90
2016,06,05,07,51,17.00
2016,06,05,07,52,17.10
2016,06,05,07,53,17.10
2016,06,05,07,54,17.20
2016,06,05,07,55,17.20
2016,06,05,07,56,17.20
2016,06,05,07,57,17.30
2016,06,05,07,58,17.30
2016,06,05,07,59,17.30
2016,06,05,08,00,17.40
2016,06,05,08,01,17.40
2016,06,05,08,02,17.50
2016,06,05,08,03,17.50
2016,06,05,08,04,17.60
2016,06,05,08,05,17.70
2016,06,05,08,06,17.70
2016,06,05,08,07,17.70
2016,06,05,08,08,17.80
2016,06,05,08,09,17.80
2016,06,05,08,10,17.80
2016,06,05,08,11,17.80
2016,06,05,08,12,17.90
2016,06,05,08,13,17.90
2016,06,05,08,14,18.00
2016,06,05,08,15,18.10
2016,06,05,08,16,18.20
2016,06,05,08,17,18.20
2016,06,05,08,18,18.30
2016,06,05,08,19,18.40
2016,06,05,08,20,18.50
2016,06,05,08,21,18.60
2016,06,05,08,22,18.70
2016,06,05,08,23,18.80
2016,06,05,08,24,18.90
2016,06,05,08,25,19.00
2016,06,05,08,26,19.00
2016,06,05,08,27,19.10
2016,06,05,08,28,19.10
2016,06,05,08,29,19.10
2016,06,05,08,30,19.10
2016,06,05,08,31,19.10
2016,06,05,08,32,19.20
2016,06,05,08,33,19.20
2016,06,05,08,34,19.20
2016,06,05,08,35,19.30
2016,06,05,08,36,19.30
2016,06,05,08,37,19.40
2016,06,05,08,38,19.50
2016,06,05,08,39,19.60
2016,06,05,08,40,19.80
2016,06,05,08,41,19.90
2016,06,05,08,42,20.00
2016,06,05,08,43,20.20
2016,06,05,08,44,20.30
2016,06,05,08,45,20.40
2016,06,05,08,46,20.50
2016,06,05,08,47,20.70
2016,06,05,08,48,20.80
2016,06,05,08,49,20.80
2016,06,05,08,50,20.90
2016,06,05,08,51,20.90
2016,06,05,08,52,21.00
2016,06,05,08,53,21.00
2016,06,05,08,54,21.10
2016,06,05,08,55,21.20
2016,06,05,08,56,21.30
2016,06,05,08,57,21.40
2016,06,05,08,58,21.50
2016,06,05,08,59,21.50
2016,06,05,09,00,21.60
2016,06,05,09,01,21.70
2016,06,05,09,02,21.70
2016,06,05,09,03,21.70
2016,06,05,09,04,21.70
2016,06,05,09,05,21.80
2016,06,05,09,06,21.80
2016,06,05,09,07,21.90
2016,06,05,09,08,21.90
2016,06,05,09,09,22.00
2016,06,05,09,10,22.00
2016,06,05,09,11,22.10
2016,06,05,09,12,22.10
2016,06,05,09,13,22.20
2016,06,05,09,14,22.30
2016,06,05,09,15,22.30
2016,06,05,09,16,22.40
2016,06,05,09,17,22.40
2016,06,05,09,18,22.40
2016,06,05,09,19,22.40
2016,06,05,09,20,22.50
2016,06,05,09,21,22.50
2016,06,05,09,22,22.60
2016,06,05,09,23,22.60
2016,06,05,09,24,22.60
2016,06,05,09,25,22.70
2016,06,05,09,26,22.70
2016,06,05,09,27,22.70
2016,06,05,09,28,22.70
2016,06,05,09,29,22.70
2016,06,05,09,30,22.70
2016,06,05,09,31,22.70
2016,06,05,09,32,22.70
2016,06,05,09,33,22.70
2016,06,05,09,34,22.80
2016,06,05,09,35,22.90
2016,06,05,09,36,23.00
2016,06,05,09,37,23.10
2016,06,05,09,38,23.20
2016,06,05,09,39,23.30
2016,06,05,09,40,23.30
2016,06,05,09,41,23.30
2016,06,05,09,42,23.30
2016,06,05,09,43,23.40
2016,06,05,09,44,23.50
2016,06,05,09,45,23.50
2016,06,05,09,46,23.60
2016,06,05,09,47,23.60
2016,06,05,09,48,23.60
2016,06,05,09,49,23.60
2016,06,05,09,50,23.70
2016,06,05,09,51,23.70
2016,06,05,09,52,23.80
2016,06,05,09,53,23.90
2016,06,05,09,54,23.90
2016,06,05,09,55,23.90
2016,06,05,09,56,24.00
2016,06,05,09,57,24.00
2016,06,05,09,58,24.00
2016,06,05,09,59,24.10
2016,06,05,10,00,24.10
2016,06,05,10,01,24.20
2016,06,05,10,02,24.20
2016,06,05,10,03,24.30
2016,06,05,10,04,24.40
2016,06,05,10,05,24.50
2016,06,05,10,06,24.60
2016,06,05,10,07,24.60
2016,06,05,10,08,24.60
2016,06,05,10,09,24.60
2016,06,05,10,10,24.50
2016,06,05,10,11,24.50
2016,06,05,10,12,24.50
2016,06,05,10,13,24.60
2016,06,05,10,14,24.60
2016,06,05,10,15,24.60
2016,06,05,10,16,24.70
2016,06,05,10,17,24.70
2016,06,05,10,18,24.70
2016,06,05,10,19,24.80
2016,06,05,10,20,24.80
2016,06,05,10,21,24.80
2016,06,05,10,22,24.80
2016,06,05,10,23,24.80
2016,06,05,10,24,24.80
2016,06,05,10,25,24.80
2016,06,05,10,26,24.80
2016,06,05,10,27,24.80
2016,06,05,10,28,24.80
2016,06,05,10,29,24.90
2016,06,05,10,30,24.90
2016,06,05,10,31,25.00
2016,06,05,10,32,25.10
2016,06,05,10,33,25.10
2016,06,05,10,34,25.20
2016,06,05,10,35,25.30
2016,06,05,10,36,25.40
2016,06,05,10,37,25.40
2016,06,05,10,38,25.40
2016,06,05,10,39,25.40
2016,06,05,10,40,25.40
2016,06,05,10,41,25.40
2016,06,05,10,42,25.50
2016,06,05,10,43,25.50
2016,06,05,10,44,25.60
2016,06,05,10,45,25.60
2016,06,05,10,46,25.60
2016,06,05,10,47,25.70
2016,06,05,10,48,25.70
2016,06,05,10,49,25.70
2016,06,05,10,50,25.70
2016,06,05,10,51,25.80
2016,06,05,10,52,25.80
2016,06,05,10,53,25.80
2016,06,05,10,54,25.80
2016,06,05,10,55,25.80
2016,06,05,10,56,25.80
2016,06,05,10,57,25.80
2016,06,05,10,58,25.70
2016,06,05,10,59,25.70
2016,06,05,11,00,25.80
2016,06,05,11,01,25.90
2016,06,05,11,02,26.00
2016,06,05,11,03,26.10
2016,06,05,11,04,26.20
2016,06,05,11,05,26.20
2016,06,05,11,06,26.20
2016,06,05,11,07,26.30
2016,06,05,11,08,26.40
2016,06,05,11,09,26.60
2016,06,05,11,10,26.60
2016,06,05,11,11,26.70
2016,06,05,11,12,26.80
2016,06,05,11,13,27.00
2016,06,05,11,14,27.10
2016,06,05,11,15,27.30
2016,06,05,11,16,27.40
2016,06,05,11,17,27.40
2016,06,05,11,18,27.50
2016,06,05,11,19,27.50
2016,06,05,11,20,27.60
2016,06,05,11,21,27.70
2016,06,05,11,22,27.80
2016,06,05,11,23,27.90
2016,06,05,11,24,27.90
2016,06,05,11,25,28.00
2016,06,05,11,26,28.10
2016,06,05,11,27,28.20
2016,06,05,11,28,28.20
2016,06,05,11,29,28.30
2016,06,05,11,30,28.30
2016,06,05,11,31,28.20
2016,06,05,11,32,28.20
2016,06,05,11,33,28.10
2016,06,05,11,34,28.20
2016,06,05,11,35,28.20
2016,06,05,11,36,28.20
2016,06,05,11,37,28.20
2016,06,05,11,38,28.20
2016,06,05,11,39,28.20
2016,06,05,11,40,28.20
2016,06,05,11,41,28.10
2016,06,05,11,42,28.10
2016,06,05,11,43,28.00
2016,06,05,11,44,28.00
2016,06,05,11,45,28.00
2016,06,05,11,46,28.00
2016,06,05,11,47,28.00
2016,06,05,11,48,28.00
2016,06,05,11,49,28.10
2016,06,05,11,50,28.10
2016,06,05,11,51,28.10
2016,06,05,11,52,28.20
2016,06,05,11,53,28.20
2016,06,05,11,54,28.30
2016,06,05,11,55,28.30
2016,06,05,11,56,28.30
2016,06,05,11,57,28.30
2016,06,05,11,58,28.30
2016,06,05,11,59,28.30
2016,06,05,12,00,28.30
2016,06,05,12,01,28.40
2016,06,05,12,02,28.50
2016,06,05,12,03,28.60
2016,06,05,12,04,28.70
2016,06,05,12,05,28.80
2016,06,05,12,06,28.80
2016,06,05,12,07,28.90
2016,06,05,12,08,28.90
2016,06,05,12,09,28.90
2016,06,05,12,10,28.90
2016,06,05,12,11,28.90
2016,06,05,12,12,29.00
2016,06,05,12,13,29.00
2016,06,05,12,14,29.00
2016,06,05,12,15,29.10
2016,06,05,12,16,29.10
2016,06,05,12,17,29.10
2016,06,05,12,18,29.10
2016,06,05,12,19,29.20
2016,06,05,12,20,29.20
2016,06,05,12,21,29.20
2016,06,05,12,22,29.30
2016,06,05,12,23,29.30
2016,06,05,12,24,29.30
2016,06,05,12,25,29.40
2016,06,05,12,26,29.50
2016,06,05,12,27,29.60
2016,06,05,12,28,29.80
2016,06,05,12,29,29.90
2016,06,05,12,30,30.00
2016,06,05,12,31,30.10
2016,06,05,12,32,30.10
2016,06,05,12,33,30.10
2016,06,05,12,34,30.10
2016,06,05,12,35,30.10
2016,06,05,12,36,30.10
2016,06,05,12,37,30.20
2016,06,05,12,38,30.20
2016,06,05,12,39,30.20
2016,06,05,12,40,30.30
2016,06,05,12,41,30.40
2016,06,05,12,42,30.40
2016,06,05,12,43,30.40
2016,06,05,12,44,30.40
2016,06,05,12,45,30.40
2016,06,05,12,46,30.40
2016,06,05,12,47,30.40
2016,06,05,12,48,30.40
2016,06,05,12,49,30.40
2016,06,05,12,50,30.40
2016,06,05,12,51,30.50
2016,06,05,12,52,30.50
2016,06,05,12,53,30.60
2016,06,05,12,54,30.60
2016,06,05,12,55,30.70
2016,06,05,12,56,30.80
2016,06,05,12,57,30.80
2016,06,05,12,58,30.90
2016,06,05,12,59,31.00
2016,06,05,13,00,31.10
2016,06,05,13,01,31.20
2016,06,05,13,02,31.30
2016,06,05,13,03,31.40
2016,06,05,13,04,31.50
2016,06,05,13,05,31.60
2016,06,05,13,06,31.60
2016,06,05,13,07,31.60
2016,06,05,13,08,31.50
2016,06,05,13,09,31.40
2016,06,05,13,10,31.40
2016,06,05,13,11,31.30
2016,06,05,13,12,31.30
2016,06,05,13,13,31.30
2016,06,05,13,14,31.30
2016,06,05,13,15,31.40
2016,06,05,13,16,31.40
2016,06,05,13,17,31.50
2016,06,05,13,18,31.60
2016,06,05,13,19,31.70
2016,06,05,13,20,31.70
2016,06,05,13,21,31.70
2016,06,05,13,22,31.80
2016,06,05,13,23,31.70
2016,06,05,13,24,31.70
2016,06,05,13,25,31.70
2016,06,05,13,26,31.70
2016,06,05,13,27,31.80
2016,06,05,13,28,31.80
2016,06,05,13,29,31.80
2016,06,05,13,30,31.80
2016,06,05,13,31,31.70
2016,06,05,13,32,31.70
2016,06,05,13,33,31.70
2016,06,05,13,34,31.70
2016,06,05,13,35,31.70
2016,06,05,13,36,31.70
2016,06,05,13,37,31.80
2016,06,05,13,38,31.90
2016,06,05,13,39,32.00
2016,06,05,13,40,32.10
2016,06,05,13,41,32.20
2016,06,05,13,42,32.30
2016,06,05,13,43,32.30
2016,06,05,13,44,32.30
2016,06,05,13,45,32.40
2016,06,05,13,46,32.40
2016,06,05,13,47,32.50
2016,06,05,13,48,32.60
2016,06,05,13,49,32.70
2016,06,05,13,50,32.80
2016,06,05,13,51,32.80
2016,06,05,13,52,32.80
2016,06,05,13,53,32.80
2016,06,05,13,54,32.90
2016,06,05,13,55,33.00
2016,06,05,13,56,33.00
2016,06,05,13,57,33.00
2016,06,05,13,58,33.00
2016,06,05,13,59,32.90
2016,06,05,14,00,32.90
2016,06,05,14,01,32.90
2016,06,05,14,02,33.00
2016,06,05,14,03,33.10
2016,06,05,14,04,33.30
2016,06,05,14,05,33.40
2016,06,05,14,06,33.50
2016,06,05,14,07,33.60
2016,06,05,14,08,33.50
2016,06,05,14,09,33.50
2016,06,05,14,10,33.50
2016,06,05,14,11,33.40
2016,06,05,14,12,33.40
2016,06,05,14,13,33.40
2016,06,05,14,14,33.50
2016,06,05,14,15,33.60
2016,06,05,14,16,33.70
2016,06,05,14,17,33.70
2016,06,05,14,18,33.70
2016,06,05,14,19,33.60
2016,06,05,14,20,33.60
2016,06,05,14,21,33.50
2016,06,05,14,22,33.50
2016,06,05,14,23,33.50
2016,06,05,14,24,33.50
2016,06,05,14,25,33.50
2016,06,05,14,26,33.60
2016,06,05,14,27,33.60
2016,06,05,14,28,33.70
2016,06,05,14,29,33.70
2016,06,05,14,30,33.70
2016,06,05,14,31,33.70
2016,06,05,14,32,33.70
2016,06,05,14,33,33.70
2016,06,05,14,34,33.70
2016,06,05,14,35,33.60
2016,06,05,14,36,33.60
2016,06,05,14,37,33.50
2016,06,05,14,38,33.50
2016,06,05,14,39,33.50
2016,06,05,14,40,33.50
2016,06,05,14,41,33.50
2016,06,05,14,42,33.50
2016,06,05,14,43,33.60
2016,06,05,14,44,33.70
2016,06,05,14,45,33.70
2016,06,05,14,46,33.70
2016,06,05,14,47,33.80
2016,06,05,14,48,33.90
2016,06,05,14,49,33.90
2016,06,05,14,50,34.00
2016,06,05,14,51,34.10
2016,06,05,14,52,34.20
2016,06,05,14,53,34.10
2016,06,05,14,54,34.00
2016,06,05,14,55,34.00
2016,06,05,14,56,34.10
2016,06,05,14,57,34.20
2016,06,05,14,58,34.30
2016,06,05,14,59,34.30
2016,06,05,15,00,34.40
2016,06,05,15,01,34.40
2016,06,05,15,02,34.50
2016,06,05,15,03,34.60
2016,06,05,15,04,34.60
2016,06,05,15,05,34.70
2016,06,05,15,06,34.70
2016,06,05,15,07,34.70
2016,06,05,15,08,34.70
2016,06,05,15,09,34.70
2016,06,05,15,10,34.80
2016,06,05,15,11,34.80
2016,06,05,15,12,34.80
2016,06,05,15,13,34.70
2016,06,05,15,14,34.70
2016,06,05,15,15,34.70
2016,06,05,15,16,34.60
2016,06,05,15,17,34.60
2016,06,05,15,18,34.50
2016,06,05,15,19,34.50
2016,06,05,15,20,34.40
2016,06,05,15,21,34.40
2016,06,05,15,22,34.50
2016,06,05,15,23,34.50
2016,06,05,15,24,34.60
2016,06,05,15,25,34.50
2016,06,05,15,26,34.50
2016,06,05,15,27,34.40
2016,06,05,15,28,34.40
2016,06,05,15,29,34.30
2016,06,05,15,30,34.30
2016,06,05,15,31,34.40
2016,06,05,15,32,34.40
2016,06,05,15,33,34.40
2016,06,05,15,34,34.40
2016,06,05,15,35,34.40
2016,06,05,15,36,34.40
2016,06,05,15,37,34.30
2016,06,05,15,38,34.30
2016,06,05,15,39,34.30
2016,06,05,15,40,34.30
2016,06,05,15,41,34.30
2016,06,05,15,42,34.30
2016,06,05,15,43,34.40
2016,06,05,15,44,34.40
2016,06,05,15,45,34.40
2016,06,05,15,46,34.50
2016,06,05,15,47,34.50
2016,06,05,15,48,34.60
2016,06,05,15,49,34.60
2016,06,05,15,50,34.60
2016,06,05,15,51,34.60
2016,06,05,15,52,34.60
2016,06,05,15,53,34.60
2016,06,05,15,54,34.60
2016,06,05,15,55,34.60
2016,06,05,15,56,34.70
2016,06,05,15,57,34.80
2016,06,05,15,58,34.90
2016,06,05,15,59,35.00
2016,06,05,16,00,35.10
2016,06,05,16,01,35.00
2016,06,05,16,02,35.00
2016,06,05,16,03,35.00
2016,06,05,16,04,35.00
2016,06,05,16,05,34.90
2016,06,05,16,06,34.80
2016,06,05,16,07,34.70
2016,06,05,16,08,34.70
2016,06,05,16,09,34.80
2016,06,05,16,10,34.80
2016,06,05,16,11,34.80
2016,06,05,16,12,34.70
2016,06,05,16,13,34.60
2016,06,05,16,14,34.60
2016,06,05,16,15,34.60
2016,06,05,16,16,34.60
2016,06,05,16,17,34.50
2016,06,05,16,18,34.60
2016,06,05,16,19,34.60
2016,06,05,16,20,34.60
2016,06,05,16,21,34.60
2016,06,05,16,22,34.60
2016,06,05,16,23,34.50
2016,06,05,16,24,34.40
2016,06,05,16,25,34.40
2016,06,05,16,26,34.40
2016,06,05,16,27,34.40
2016,06,05,16,28,34.30
2016,06,05,16,29,34.30
2016,06,05,16,30,34.20
2016,06,05,16,31,34.10
2016,06,05,16,32,34.00
2016,06,05,16,33,34.00
2016,06,05,16,34,34.00
2016,06,05,16,35,34.00
2016,06,05,16,36,33.90
2016,06,05,16,37,33.90
2016,06,05,16,38,33.90
2016,06,05,16,39,33.90
2016,06,05,16,40,33.90
2016,06,05,16,41,33.90
2016,06,05,16,42,33.90
2016,06,05,16,43,34.00
2016,06,05,16,44,34.10
2016,06,05,16,45,34.10
2016,06,05,16,46,34.10
2016,06,05,16,47,34.10
2016,06,05,16,48,34.10
2016,06,05,16,49,34.10
2016,06,05,16,50,34.00
2016,06,05,16,51,34.00
2016,06,05,16,52,34.00
2016,06,05,16,53,34.00
2016,06,05,16,54,34.10
2016,06,05,16,55,34.10
2016,06,05,16,56,34.10
2016,06,05,16,57,34.10
2016,06,05,16,58,34.10
2016,06,05,16,59,34.00
2016,06,05,17,00,33.90
2016,06,05,17,01,33.90
2016,06,05,17,02,33.90
2016,06,05,17,03,33.80
2016,06,05,17,04,33.80
2016,06,05,17,05,33.80
2016,06,05,17,06,33.80
2016,06,05,17,07,33.80
2016,06,05,17,08,33.80
2016,06,05,17,09,33.80
2016,06,05,17,10,33.70
2016,06,05,17,11,33.70
2016,06,05,17,12,33.60
2016,06,05,17,13,33.70
2016,06,05,17,14,33.70
2016,06,05,17,15,33.70
2016,06,05,17,16,33.70
2016,06,05,17,17,33.70
2016,06,05,17,18,33.60
2016,06,05,17,19,33.60